Regional Weather Roundup
Issued by NWS

Home | Current Version | Previous Version | Text Only | Print | Product List | Glossary On
Versions: 1 2 3 4 5 6 7 8 9 10 11 12 13 14 15 16 17 18 19 20 21 22 23 24 25 26 27 28 29 30 31 32 33 34 35 36 37 38 39 40 41 42 43 44 45 46 47 48 49 50
765
ASUS43 KLMK 250002
RWRKY
KENTUCKY REGIONAL WEATHER ROUNDUP
NATIONAL WEATHER SERVICE LOUISVILLE KY
800 PM EDT SUN SEP 24 2017

NOTE "FAIR" INDICATES FEW OR NO CLOUDS BELOW 12,000 FEET
WITH NO SIGNIFICANT WEATHER AND/OR OBSTRUCTIONS TO VISIBILITY.

KYZ001>023-026-027-061>063-070>075-250100-
WESTERN AND SOUTH CENTRAL KENTUCKY

CITY           SKY/WX    TMP DP  RH WIND       PRES   REMARKS
PADUCAH        PTCLDY    74  65  73 W10       30.00R
HENDERSON      CLEAR     78  66  66 CALM      29.99R
OWENSBORO      MOCLDY    83  67  58 SE3       29.99S
HOPKINSVILLE   PTCLDY    78  70  76 E5        29.99S
BOWLING GREEN  PTCLDY    80  70  71 CALM      30.00F
GLASGOW        MOCLDY    73  70  91 E3        30.02S
$$

KYZ024-025-028>034-038-045-046-053-250100-
NORTH CENTRAL KENTUCKY

CITY           SKY/WX    TMP DP  RH WIND       PRES   REMARKS
LOUISVILLE/SDF PTCLDY    84  58  40 E6        30.00S
LOUISVILLE/LOU PTCLDY    82  59  45 NE5       30.01S
FORT KNOX      MOCLDY    79  62  56 E3        30.00S
$$

KYZ035>037-039>044-047>052-055>060-089>105-250100-
NORTHEAST KENTUCKY

CITY           SKY/WX    TMP DP  RH WIND       PRES   REMARKS
LEXINGTON      PTCLDY    79  62  56 NE6       30.05S
COVINGTON      PTCLDY    77  55  46 SE5       30.05S
FRANKFORT      PTCLDY    74  61  63 CALM      30.03S
$$

KYZ054-064>069-076>088-106>120-250100-
SOUTHEAST KENTUCKY

CITY           SKY/WX    TMP DP  RH WIND       PRES   REMARKS
JACKSON        CLOUDY    75  60  59 CALM      30.08R
LONDON         CLEAR     77  64  64 CALM      30.06R
SOMERSET       PTCLDY    73  64  73 CALM      30.05S
MIDDLESBORO    CLEAR     73  64  73 W3        30.07R
MONTICELLO     MOCLDY    73  68  84 NW9       30.06S
$$





USA.gov is the U.S. government's official web portal to all federal, state and local government web resources and services.